La Grande, OR

5:19 AM PST on December 08, 2019 (GMT -0800)
La Grande-Union County

Weather History for KLGD - September, 2019

Change the Weather History Date:

Wednesday, September 18, 2019

  Actual Average Record
Temperature  
Mean Temperature 56 °F -  
Max Temperature 66 °F 72 °F 98 °F (1981)
Min Temperature 45 °F 40 °F 27 °F (1965)
Degree Days  
Heating Degree Days 9    
Growing Degree Days 6 (Base 50)    
Moisture  
Dew Point 46 °F    
Average Humidity 72    
Maximum Humidity 97    
Minimum Humidity 50    
Precipitation  
Precipitation 0.03 in - - ()
Sea Level Pressure  
Sea Level Pressure 30.18 in    
Wind  
Wind Speed 12 mph (South)    
Max Wind Speed 18 mph    
Max Gust Speed 25 mph    
Visibility 10 miles    
Events Rain , Thunderstorm    
Averages and records for this station are not official NWS values.
T = Trace of Precipitation, MM = Missing Value Source: NWS Daily Summary

Daily Weather History Graph

Daily Weather History Graph

Search for Another Location

Airport or City:

Astronomy

Sep. 18, 2019 Rise Set
Actual Time 6:34 AM PDT 6:57 PM PDT
Civil Twilight 6:04 AM PDT 7:26 PM PDT
Nautical Twilight 5:29 AM PDT 8:01 PM PDT
Astronomical Twilight 4:53 AM PDT 8:37 PM PDT
Moon 9:22 PM PDT (9/18) 10:52 AM PDT (9/18)
Length of Visible Light 13h 22m
Length of Day
12h 23m
Waning Gibbous, 82% of the Moon is Illuminated
Sep 18
Waning Gibbous
Sep 21
Last Quarter
Sep 28
New
Oct 5
First Quarter
Oct 13
Full

Hourly Weather History & Observations

Time (PDT) Temp. Windchill Dew Point Humidity Pressure Visibility Wind Dir Wind Speed Gust Speed Precip Events Conditions
12:22 AM 51.8 °F - 46.4 °F 82% 29.87 in 10.0 mi South 17.3 mph - 0.00 in   Mostly Cloudy
12:38 AM 53.6 °F - 46.4 °F 77% 29.87 in 10.0 mi SSE 13.8 mph 23.0 mph 0.00 in   Overcast
12:56 AM 52.0 °F - 46.0 °F 80% 30.27 in 10.0 mi SE 12.7 mph 21.9 mph 0.00 in   Overcast
1:32 AM 51.8 °F - 46.4 °F 82% 29.87 in 10.0 mi SSE 12.7 mph 25.3 mph 0.00 in Rain Light Rain
1:56 AM 53.1 °F - 46.9 °F 80% 30.28 in 10.0 mi SSW 12.7 mph 16.1 mph 0.00 in Rain Light Rain
2:30 AM 53.6 °F - 46.4 °F 77% 29.88 in 10.0 mi South 6.9 mph - 0.00 in Rain Light Rain
3:56 AM 53.1 °F - 46.0 °F 77% 30.25 in 10.0 mi South 8.1 mph - N/A   Overcast
4:56 AM 53.1 °F - 46.0 °F 77% 30.25 in 10.0 mi South 15.0 mph 20.7 mph 0.00 in   Mostly Cloudy
5:56 AM 53.1 °F - 45.0 °F 74% 30.26 in 10.0 mi South 12.7 mph - N/A   Overcast
6:56 AM 53.1 °F - 45.0 °F 74% 30.27 in 10.0 mi South 8.1 mph - N/A   Overcast
7:56 AM 54.0 °F - 45.0 °F 72% 30.29 in 10.0 mi SSE 5.8 mph - N/A   Mostly Cloudy
8:56 AM 55.0 °F - 46.0 °F 72% 30.29 in 10.0 mi SSE 8.1 mph - N/A   Overcast
9:56 AM 57.0 °F - 46.9 °F 69% 30.29 in 10.0 mi South 11.5 mph - N/A   Clear
10:56 AM 57.9 °F - 46.0 °F 65% 30.28 in 10.0 mi SSE 9.2 mph - N/A   Clear
11:56 AM 59.0 °F - 45.0 °F 60% 30.29 in 10.0 mi Variable 4.6 mph - N/A   Scattered Clouds
12:56 PM 62.1 °F - 46.9 °F 58% 30.28 in 10.0 mi SSW 10.4 mph - N/A   Mostly Cloudy
1:56 PM 63.0 °F - 46.0 °F 54% 30.27 in 10.0 mi SSE 9.2 mph - N/A   Overcast
2:56 PM 63.0 °F - 44.1 °F 50% 30.27 in 10.0 mi South 11.5 mph - N/A   Mostly Cloudy
3:56 PM 63.0 °F - 44.1 °F 50% 30.27 in 10.0 mi South 15.0 mph - N/A   Mostly Cloudy
4:24 PM 64.4 °F - 46.4 °F 52% 29.86 in 10.0 mi South 16.1 mph 20.7 mph N/A Thunderstorm Partly Cloudy
4:39 PM 62.6 °F - 46.4 °F 55% 29.86 in 10.0 mi South 15.0 mph - N/A   Partly Cloudy
4:56 PM 60.1 °F - 48.0 °F 64% 30.27 in 10.0 mi South 16.1 mph - N/A   Clear
5:06 PM 59.0 °F - 46.4 °F 63% 29.87 in 10.0 mi South 13.8 mph - N/A Thunderstorm Scattered Clouds
5:22 PM 57.2 °F - 46.4 °F 67% 29.88 in 10.0 mi South 18.4 mph 24.2 mph N/A   Mostly Cloudy
5:35 PM 57.2 °F - 46.4 °F 67% 29.89 in 10.0 mi South 12.7 mph 21.9 mph N/A Thunderstorm Mostly Cloudy
5:56 PM 57.9 °F - 46.0 °F 65% 30.32 in 10.0 mi WNW 8.1 mph - N/A Thunderstorm Overcast
6:56 PM 51.1 °F - 46.9 °F 86% 30.33 in 10.0 mi NNW 8.1 mph - 0.00 in Rain Light Rain
7:56 PM 52.0 °F - 46.9 °F 83% 30.35 in 10.0 mi West 3.5 mph - 0.02 in Rain Light Rain
8:56 PM 48.9 °F - 46.9 °F 93% 30.36 in 10.0 mi NNE 5.8 mph - 0.01 in   Mostly Cloudy
9:56 PM 48.0 °F - 46.9 °F 96% 30.37 in 10.0 mi Calm Calm - N/A   Mostly Cloudy
10:56 PM 48.9 °F - 46.9 °F 93% 30.37 in 10.0 mi SW 3.5 mph - N/A   Mostly Cloudy
11:56 PM 45.0 °F 42.6 °F 44.1 °F 97% 30.37 in 10.0 mi WNW 4.6 mph - N/A   Clear